Simultaneous Nadir Overpasses (SNOs) Predictions

Prediction of SNOs between METOP-B and TERRA Satellite Orbit:

Table of predicted SNOs for the next 14.0 days since TLE Epoch: 12/28/2012
Index Date (METOP-B) Time (METOP-B) Lat,Lon (METOP-B) SZA (METOP-B ) Date (TERRA) Time (TERRA) Lat,Lon (TERRA) SZA (TERRA ) Distance(km) Time Diff (sec)
1 12/30/2012 05:57:17 -81.27, -42.77 73.11 12/30/2012 05:57:28 -81.26, -42.74 73.11 0.64 11
2 12/30/2012 06:47:56 81.28, 125.05 106.95 12/30/2012 06:46:54 81.27, 125.02 106.91 0.74 62
3 01/02/2013 01:31:41 -81.27, 23.89 73.34 01/02/2013 01:31:44 -81.27, 23.84 73.34 0.86 3
4 01/02/2013 02:22:20 81.28,-168.27 106.72 01/02/2013 02:21:10 81.28,-168.43 106.67 2.71 70
5 01/04/2013 20:15:27 81.26, -77.67 106.29 01/04/2013 20:16:35 81.26, -77.64 106.31 0.76 68
6 01/04/2013 21:06:06 -81.28, 90.55 73.62 01/04/2013 21:06:01 -81.28, 90.36 73.64 3.28 5
7 01/07/2013 15:49:53 81.26, -11.37 105.90 01/07/2013 15:50:52 81.26, -11.21 105.94 2.76 59
8 01/07/2013 16:40:32 -81.27, 156.83 74.01 01/07/2013 16:40:18 -81.28, 156.81 74.01 0.59 14
9 01/10/2013 11:24:16 81.27, 55.72 105.56 01/10/2013 11:25:07 81.28, 55.54 105.56 3.05 51




NCC Satellite Simultaneous Nadir Overpasses (SNOs) Prediction Service
